Regional Weather Roundup
Issued by NWS Austin/San Antonio, TX

Home | Current Version | Previous Version | Text Only | Print | Product List | Glossary On
Versions: 1 2 3 4 5 6 7 8 9 10 11 12 13 14 15 16 17 18 19 20 21 22 23 24 25 26 27 28 29 30 31 32 33 34 35 36 37 38 39 40 41 42 43 44 45 46 47 48 49 50
000
ASUS44 KEWX 281711
RWREWX
SOUTH TEXAS REGIONAL WEATHER ROUNDUP
NATIONAL WEATHER SERVICE AUSTIN/SAN ANTONIO TX
1200 PM CDT WED JUN 28 2017

NOTE: "FAIR" INDICATED FEW OR NO CLOUDS BELOW 12,000 FEET WITH NO
SIGNIFICANT WEATHER AND/OR OBSTRUCTIONS TO VISIBILITY.

* - THESE STATIONS ARE NOT NWS OR FAA STATIONS...AND ARE NOT SUBJECT
    TO NWS AND FAA QUALITY CONTROL.

TXZ171-172-183>190-281800-
TEXAS HILL COUNTRY AND EDWARDS PLATEAU

CITY           SKY/WX    TMP DP  RH WIND       PRES   REMARKS
JUNCTION       MOSUNNY   82  66  58 SE7       29.96F
*LLANO         CLOUDY    79  70  73 SE6       30.00S
BURNET         CLOUDY    80  67  64 E5        29.99S
*HORSESHOE BAY CLOUDY    82  68  64 MISG      29.96S
*KERRVILLE     CLOUDY    82  70  68 E7        29.97S
*FREDERICKSBRG CLOUDY    80  65  59 SE6       29.98S
*ROCKSPRINGS   MOSUNNY   81  70  69 S6        30.01F
*BOERNE STAGE  PTSUNNY   79  68  69 NE5       29.98S
*CASTROVILLE   PTSUNNY   83  68  59 E5        29.95S
HONDO          PTSUNNY   84  69  60 E7        29.94S
*UVALDE        MOSUNNY   82  70  66 CALM      29.95F
DEL RIO        MOSUNNY   83  69  62 SE13      29.92F
LAUGHLIN AFB   MOSUNNY   82  70  65 S10       29.92F
CARRIZO SPRGS  CLOUDY    81  70  69 SE7       29.92S
*EAGLE PASS    CLOUDY    82  68  61 VRB5      29.93F
$$

TXZ173-191>194-202-209-217>225-228-281800-
CENTRAL AND SOUTH CENTRAL TEXAS

CITY           SKY/WX    TMP DP  RH WIND       PRES   REMARKS
GEORGETOWN     PTSUNNY   82  68  61 E7        29.94F
AUSTIN/BERGSTM PTSUNNY   84  71  65 NE7       29.93S
AUSTIN/MABRY   PTSUNNY   85  70  60 VRB3      29.95S
*AUSTIN/EXEC     N/A     82  70  65 CALM      29.95S
*LAGO VISTA    CLOUDY    81  70  69 CALM      29.97S
SAN MARCOS     PTSUNNY   82  72  69 E5        29.95S
NEW BRAUNFELS  MOSUNNY   84  71  65 E6        29.93S
RANDOLPH AFB   PTSUNNY   83  72  69 CALM      29.93F
PT SAN ANTONIO PTSUNNY   82  70  66 SE6       29.92S
SAN ANTONIO    PTSUNNY   83  69  62 NE6       29.94F
STINSON FIELD  PTSUNNY   84  70  62 E3        29.91F
*LA GRANGE     CLOUDY    84  74  72 E7        29.91S HX  91
*GIDDINGS        N/A    N/A N/A N/A MISG        N/A
*GONZALES      PTSUNNY   85  73  65 E8        29.91S HX  92
$$

TXZ163>164-176>182-195>201-210>213-226-227-235-281800-
SOUTHEAST TEXAS

CITY           SKY/WX    TMP DP  RH WIND       PRES   REMARKS
COLLEGE STN    MOSUNNY   81  73  76 E12       29.94F
*BRYAN         PTSUNNY   82  72  72 E7        29.96F
*CALDWELL      NOT AVBL
*CROCKETT      MOSUNNY   84  72  65 SE7       29.99S
*BRENHAM       PTSUNNY   84  73  69 E8        29.94F HX  90
HUNTSVILLE     MOSUNNY   86  71  60 VRB6      29.95F HX  91
CONROE         PTSUNNY   84  71  65 SE13      29.95S
HOUSTON BUSH   MOSUNNY   87  73  62 E13       29.93S HX  94
HOUSTON HOBBY  PTSUNNY   84  74  71 E12       29.92S HX  91
*HOUSTON SW AP PTSUNNY   85  73  67 E15       29.92F HX  91
PEARLAND       PTSUNNY   86  73  65 E12       29.93S HX  93
HOUSTON HOOKS  PTSUNNY   85  72  65 E13       29.93S HX  91
ELLINGTON FLD  PTSUNNY   86  73  66 E9        29.93F HX  93
SUGAR LAND     CLOUDY    85  73  67 E10       29.91S HX  91
*HOUSTON EXEC  PTSUNNY   84  75  74 E10       29.93S HX  92
*CLEVELAND MUN CLOUDY    83  74  73 SE5       29.96S
*WHARTON       MOSUNNY   87  71  59 NE10      29.91S HX  92
*COLUMBUS      PTSUNNY   84  72  67 E9        29.93S HX  90
*EAGLE LAKE    PTSUNNY   85  76  74 E8        29.92S HX  94
$$

TXZ214>216-236>238-281800-
THE UPPER TEXAS COAST

CITY           SKY/WX    TMP DP  RH WIND       PRES   REMARKS
*ORANGE        CLOUDY    82  74  76 E13       29.97S
PORT ARTHUR      N/A    N/A N/A N/A MISG      29.94
GALVESTON      CLOUDY    81  76  84 E14       29.92S
ANGLETON       CLOUDY    85  76  74 E10       29.90S HX  94
*BAY CITY      CLOUDY    85  76  74 E8        29.89S HX  93
PALACIOS       CLOUDY    83  74  74 E10       29.88S
$$

TXZ229>234-239>247-281800-
TEXAS COASTAL BEND AND RIO GRANDE PLAINS

CITY           SKY/WX    TMP DP  RH WIND       PRES   REMARKS
VICTORIA       PTSUNNY   86  75  69 NE9       29.89F HX  95
*BEEVILLE      MOSUNNY   86  73  65 N6        29.90S HX  93
ROCKPORT       MOSUNNY   86  75  69 VRB7      29.88R HX  95
*PORT ARANSAS  PTSUNNY   85  74  70 E7        29.88S HX  92
*PORT LAVACA   CLOUDY    84  77  78 CALM      29.89S HX  93
*INGLESIDE     PTSUNNY   84  75  76 MISG      29.88S HX  92
CORPUS CHRISTI MOSUNNY   90  73  57 CALM      29.88F HX  98
CORPUS NAS     PTSUNNY   89  78  70 NE8       29.88S HX 103
*ROBSTOWN      SUNNY     87  75  67 N5        29.89F HX  96
ALICE          PTSUNNY   86  70  58 NE6       29.89S HX  90
KINGSVILLE NAS PTSUNNY   88  76  67 NE7       29.88F HX  99
COTULLA        PTSUNNY   84  70  62 E5        29.92S
*FAITH RANCH   PTSUNNY   82  70  65 CALM      29.93S
LAREDO         MOSUNNY   86  72  62 VRB3      29.92S HX  92
$$

TXZ248>255-281800-
DEEP SOUTH TEXAS

CITY           SKY/WX    TMP DP  RH WIND       PRES   REMARKS
BROWNSVILLE    PTSUNNY   87  76  69 S3        29.88R HX  97
PORT ISABEL    CLOUDY    84  76  76 NE10      29.87R HX  93
*SOUTH PADRE   NOT AVBL
HARLINGEN      MOSUNNY   89  76  65 CALM      29.87R HX 100
*HEBBRONVILLE  LGT RAIN  82  70  66 CALM      29.92F
MCALLEN        PTSUNNY   92  73  53 VRB3      29.88R HX 100
*WESLACO       MOSUNNY   88  74  64 E3        29.87S HX  97
FALFURRIAS     CLOUDY    87  70  56 N5        29.88F HX  91
EDINBURG       CLOUDY    89  71  55 NE5       29.88S HX  94
*ZAPATA        PTSUNNY   87  70  57 NE5       29.89F HX  91
$$

TXZ213>215-236>238-242>244-246-247-251-254-255-281800-
CMAN STATIONS

STATION/POSITION TIME  TEMP    WIND        PRES    WAVE
                       AIR SEA DIR/SP/G            HT/PER
                 (UTC) (F)     (DEG/KT/KT) (MB)    (FT/S)
SABINE PASS      1648   79 85  100/ 18/ 23 1015.3
SEA RIM ST PARK  1700   81     100/ 13/ 18 1014.4
NORTH JETTY/GLS  1648          100/  7/  9   N/A
EAGLE POINT      1648          110/ 10/ 12   N/A
MORGANS POINT    1648   82 83   70/ 14/ 17 1013.2
MISSION/ARANSAS  1600           20/  5       N/A
PORT O`CONNOR    1648   82     100/  7/ 10 1011.6
PORT ARANSAS     1700   81 85   60/  6/  7 1011.9
MALAQUITE BEACH  1648   82 85   10/  4/  5 1011.4
PORT ISABEL      1648   84 86              1011.8
$$



USA.gov is the U.S. government's official web portal to all federal, state and local government web resources and services.